Time,TemperatureF,DewpointF,PressureIn,WindDirection,WindDirectionDegrees,WindSpeedMPH,WindSpeedGustMPH,Humidity,HourlyPrecipIn,Conditions,Clouds,dailyrainin,SoftwareType,DateUTC
2013-01-30 00:00:00,43.3,33.8,28.76,North,-999,-999.0,0.0,68,0.00,,,0.00,WeatherTracker,2013-01-30 06:00:00,
2013-01-30 00:05:00,43.3,33.8,28.82,North,-999,-999.0,0.0,68,0.00,,,0.00,WeatherTracker,2013-01-30 06:05:00,
2013-01-30 00:15:00,43.3,33.8,28.82,North,-999,-999.0,0.0,69,0.00,,,0.00,WeatherTracker,2013-01-30 06:15:00,
2013-01-30 00:20:00,43.3,33.8,28.82,North,-999,-999.0,0.0,69,0.00,,,0.00,WeatherTracker,2013-01-30 06:20:00,
2013-01-30 00:25:00,43.3,33.8,28.82,North,-999,-999.0,0.0,69,0.00,,,0.00,WeatherTracker,2013-01-30 06:25:00,
2013-01-30 00:30:00,43.3,33.8,28.82,North,-999,-999.0,0.0,67,0.00,,,0.00,WeatherTracker,2013-01-30 06:30:00,
2013-01-30 00:35:00,43.2,33.8,28.82,North,-999,-999.0,0.0,67,0.00,,,0.00,WeatherTracker,2013-01-30 06:35:00,
2013-01-30 00:40:00,43.2,33.8,28.82,North,-999,-999.0,0.0,65,0.00,,,0.00,WeatherTracker,2013-01-30 06:40:00,
2013-01-30 00:45:00,43.2,32.0,28.82,North,-999,-999.0,0.0,62,0.00,,,0.00,WeatherTracker,2013-01-30 06:45:00,
2013-01-30 00:50:00,43.0,30.2,28.82,North,-999,-999.0,0.0,61,0.00,,,0.00,WeatherTracker,2013-01-30 06:50:00,
2013-01-30 00:55:00,43.0,30.2,28.82,North,-999,-999.0,0.0,61,0.00,,,0.00,WeatherTracker,2013-01-30 06:55:00,
2013-01-30 01:00:00,42.6,30.2,28.82,North,-999,-999.0,0.0,60,0.00,,,0.00,WeatherTracker,2013-01-30 07:00:00,
2013-01-30 01:10:00,42.4,30.2,28.82,North,-999,-999.0,0.0,60,0.00,,,0.00,WeatherTracker,2013-01-30 07:10:00,
2013-01-30 01:15:00,42.4,30.2,28.82,North,-999,-999.0,0.0,61,0.00,,,0.00,WeatherTracker,2013-01-30 07:15:00,
2013-01-30 01:20:00,42.3,28.4,28.82,North,-999,-999.0,0.0,57,0.00,,,0.00,WeatherTracker,2013-01-30 07:20:00,
2013-01-30 01:25:00,42.1,28.4,28.82,North,-999,-999.0,0.0,56,0.00,,,0.00,WeatherTracker,2013-01-30 07:25:00,
2013-01-30 01:30:00,42.1,28.4,28.82,North,-999,-999.0,0.0,57,0.00,,,0.00,WeatherTracker,2013-01-30 07:30:00,
2013-01-30 01:35:00,41.9,30.2,28.82,North,-999,-999.0,0.0,59,0.00,,,0.00,WeatherTracker,2013-01-30 07:35:00,
2013-01-30 01:40:00,41.7,30.2,28.82,North,-999,-999.0,0.0,60,0.00,,,0.00,WeatherTracker,2013-01-30 07:40:00,
2013-01-30 01:45:00,41.7,28.4,28.82,North,-999,-999.0,0.0,59,0.00,,,0.00,WeatherTracker,2013-01-30 07:45:00,
2013-01-30 01:50:00,41.5,30.2,28.82,North,-999,-999.0,0.0,60,0.00,,,0.00,WeatherTracker,2013-01-30 07:50:00,
2013-01-30 01:55:00,41.4,28.4,28.82,North,-999,-999.0,0.0,61,0.00,,,0.00,WeatherTracker,2013-01-30 07:55:00,
2013-01-30 02:00:00,41.4,28.4,28.82,North,-999,-999.0,0.0,61,0.00,,,0.00,WeatherTracker,2013-01-30 08:00:00,
2013-01-30 02:05:00,41.4,30.2,28.82,North,-999,-999.0,0.0,62,0.00,,,0.00,WeatherTracker,2013-01-30 08:05:00,
2013-01-30 02:10:00,41.5,30.2,28.82,North,-999,-999.0,0.0,62,0.00,,,0.00,WeatherTracker,2013-01-30 08:10:00,
2013-01-30 02:15:00,41.5,30.2,28.82,North,-999,-999.0,0.0,63,0.00,,,0.00,WeatherTracker,2013-01-30 08:15:00,
2013-01-30 02:20:00,41.5,30.2,28.82,North,-999,-999.0,0.0,63,0.00,,,0.00,WeatherTracker,2013-01-30 08:20:00,
2013-01-30 02:25:00,41.5,30.2,28.82,North,-999,-999.0,0.0,62,0.00,,,0.00,WeatherTracker,2013-01-30 08:25:00,
2013-01-30 02:30:00,41.4,28.4,28.82,North,-999,-999.0,0.0,61,0.00,,,0.00,WeatherTracker,2013-01-30 08:30:00,
2013-01-30 02:35:00,41.4,30.2,28.82,North,-999,-999.0,0.0,62,0.00,,,0.00,WeatherTracker,2013-01-30 08:35:00,
2013-01-30 02:40:00,41.4,30.2,28.82,North,-999,-999.0,0.0,63,0.00,,,0.00,WeatherTracker,2013-01-30 08:40:00,
2013-01-30 02:45:00,41.2,30.2,28.82,North,-999,-999.0,0.0,64,0.00,,,0.00,WeatherTracker,2013-01-30 08:45:00,
2013-01-30 02:50:00,41.2,30.2,28.82,North,-999,-999.0,0.0,64,0.00,,,0.00,WeatherTracker,2013-01-30 08:50:00,
2013-01-30 02:55:00,41.2,30.2,28.82,North,-999,-999.0,0.0,64,0.00,,,0.00,WeatherTracker,2013-01-30 08:55:00,
2013-01-30 03:00:00,41.2,30.2,28.82,North,-999,-999.0,0.0,64,0.00,,,0.00,WeatherTracker,2013-01-30 09:00:00,
2013-01-30 03:05:00,41.2,30.2,28.82,North,-999,-999.0,0.0,64,0.00,,,0.00,WeatherTracker,2013-01-30 09:05:00,
2013-01-30 03:10:00,41.2,30.2,28.82,North,-999,-999.0,0.0,65,0.00,,,0.00,WeatherTracker,2013-01-30 09:10:00,
2013-01-30 03:15:00,41.2,30.2,28.82,North,-999,-999.0,0.0,63,0.00,,,0.00,WeatherTracker,2013-01-30 09:15:00,
2013-01-30 03:20:00,41.2,30.2,28.82,North,-999,-999.0,0.0,62,0.00,,,0.00,WeatherTracker,2013-01-30 09:20:00,
2013-01-30 03:25:00,41.2,28.4,28.82,North,-999,-999.0,0.0,60,0.00,,,0.00,WeatherTracker,2013-01-30 09:25:00,
2013-01-30 03:30:00,41.2,28.4,28.82,North,-999,-999.0,0.0,60,0.00,,,0.00,WeatherTracker,2013-01-30 09:30:00,
2013-01-30 03:35:00,41.2,28.4,28.82,North,-999,-999.0,0.0,60,0.00,,,0.00,WeatherTracker,2013-01-30 09:35:00,
2013-01-30 03:40:00,41.2,28.4,28.82,North,-999,-999.0,0.0,59,0.00,,,0.00,WeatherTracker,2013-01-30 09:40:00,
2013-01-30 03:45:00,41.2,28.4,28.82,North,-999,-999.0,0.0,58,0.00,,,0.00,WeatherTracker,2013-01-30 09:45:00,
2013-01-30 03:50:00,41.0,28.4,28.82,North,-999,-999.0,0.0,58,0.00,,,0.00,WeatherTracker,2013-01-30 09:50:00,
2013-01-30 03:55:00,41.0,28.4,28.82,North,-999,-999.0,0.0,58,0.00,,,0.00,WeatherTracker,2013-01-30 09:55:00,
2013-01-30 04:00:00,41.0,26.6,28.82,North,-999,-999.0,0.0,57,0.00,,,0.00,WeatherTracker,2013-01-30 10:00:00,
2013-01-30 04:05:00,41.0,28.4,28.82,North,-999,-999.0,0.0,58,0.00,,,0.00,WeatherTracker,2013-01-30 10:05:00,
2013-01-30 04:10:00,40.8,26.6,28.82,North,-999,-999.0,0.0,55,0.00,,,0.00,WeatherTracker,2013-01-30 10:10:00,
2013-01-30 04:15:00,40.6,24.8,28.82,North,-999,-999.0,0.0,54,0.00,,,0.00,WeatherTracker,2013-01-30 10:15:00,
2013-01-30 04:25:00,40.3,24.8,28.82,North,-999,-999.0,0.0,53,0.00,,,0.00,WeatherTracker,2013-01-30 10:25:00,
2013-01-30 04:30:00,39.9,24.8,28.82,North,-999,-999.0,0.0,53,0.00,,,0.00,WeatherTracker,2013-01-30 10:30:00,
2013-01-30 04:40:00,39.7,24.8,28.85,North,-999,-999.0,0.0,53,0.00,,,0.00,WeatherTracker,2013-01-30 10:40:00,
2013-01-30 04:45:00,39.6,23.0,28.85,North,-999,-999.0,0.0,52,0.00,,,0.00,WeatherTracker,2013-01-30 10:45:00,
2013-01-30 04:50:00,39.6,23.0,28.85,North,-999,-999.0,0.0,52,0.00,,,0.00,WeatherTracker,2013-01-30 10:50:00,
2013-01-30 04:55:00,39.6,24.8,28.85,North,-999,-999.0,0.0,53,0.00,,,0.00,WeatherTracker,2013-01-30 10:55:00,
2013-01-30 05:00:00,39.6,24.8,28.85,North,-999,-999.0,0.0,53,0.00,,,0.00,WeatherTracker,2013-01-30 11:00:00,
2013-01-30 05:05:00,39.6,24.8,28.85,North,-999,-999.0,0.0,55,0.00,,,0.00,WeatherTracker,2013-01-30 11:05:00,
2013-01-30 05:10:00,39.4,24.8,28.85,North,-999,-999.0,0.0,55,0.00,,,0.00,WeatherTracker,2013-01-30 11:10:00,
2013-01-30 05:15:00,39.4,24.8,28.85,North,-999,-999.0,0.0,57,0.00,,,0.00,WeatherTracker,2013-01-30 11:15:00,
2013-01-30 05:20:00,39.4,26.6,28.85,North,-999,-999.0,0.0,58,0.00,,,0.00,WeatherTracker,2013-01-30 11:20:00,
2013-01-30 05:25:00,39.4,24.8,28.85,North,-999,-999.0,0.0,57,0.00,,,0.00,WeatherTracker,2013-01-30 11:25:00,
2013-01-30 05:30:00,39.4,24.8,28.85,North,-999,-999.0,0.0,57,0.00,,,0.00,WeatherTracker,2013-01-30 11:30:00,
2013-01-30 05:35:00,39.4,24.8,28.85,North,-999,-999.0,0.0,54,0.00,,,0.00,WeatherTracker,2013-01-30 11:35:00,
2013-01-30 05:40:00,39.4,23.0,28.85,North,-999,-999.0,0.0,53,0.00,,,0.00,WeatherTracker,2013-01-30 11:40:00,
2013-01-30 05:45:00,39.2,23.0,28.85,North,-999,-999.0,0.0,52,0.00,,,0.00,WeatherTracker,2013-01-30 11:45:00,
2013-01-30 05:50:00,39.2,23.0,28.88,North,-999,-999.0,0.0,52,0.00,,,0.00,WeatherTracker,2013-01-30 11:50:00,
2013-01-30 05:55:00,39.2,23.0,28.88,North,-999,-999.0,0.0,53,0.00,,,0.00,WeatherTracker,2013-01-30 11:55:00,
2013-01-30 06:00:00,39.0,23.0,28.88,North,-999,-999.0,0.0,52,0.00,,,0.00,WeatherTracker,2013-01-30 12:00:00,
2013-01-30 06:05:00,39.0,23.0,28.88,North,-999,-999.0,0.0,52,0.00,,,0.00,WeatherTracker,2013-01-30 12:05:00,
2013-01-30 06:10:00,38.8,23.0,28.88,North,-999,-999.0,0.0,52,0.00,,,0.00,WeatherTracker,2013-01-30 12:10:00,
2013-01-30 06:15:00,38.8,23.0,28.88,North,-999,-999.0,0.0,51,0.00,,,0.00,WeatherTracker,2013-01-30 12:15:00,
2013-01-30 06:20:00,38.8,23.0,28.91,North,-999,-999.0,0.0,51,0.00,,,0.00,WeatherTracker,2013-01-30 12:20:00,
2013-01-30 06:25:00,38.8,21.2,28.91,North,-999,-999.0,0.0,50,0.00,,,0.00,WeatherTracker,2013-01-30 12:25:00,
2013-01-30 06:30:00,38.8,21.2,28.91,North,-999,-999.0,0.0,50,0.00,,,0.00,WeatherTracker,2013-01-30 12:30:00,
2013-01-30 06:35:00,38.7,21.2,28.91,North,-999,-999.0,0.0,50,0.00,,,0.00,WeatherTracker,2013-01-30 12:35:00,
2013-01-30 06:40:00,38.7,21.2,28.91,North,-999,-999.0,0.0,50,0.00,,,0.00,WeatherTracker,2013-01-30 12:40:00,
2013-01-30 06:45:00,38.5,21.2,28.91,North,-999,-999.0,0.0,50,0.00,,,0.00,WeatherTracker,2013-01-30 12:45:00,
2013-01-30 06:50:00,38.5,21.2,28.94,North,-999,-999.0,0.0,49,0.00,,,0.00,WeatherTracker,2013-01-30 12:50:00,
2013-01-30 06:55:00,38.5,21.2,28.94,North,-999,-999.0,0.0,49,0.00,,,0.00,WeatherTracker,2013-01-30 12:55:00,
2013-01-30 07:00:00,38.5,21.2,28.94,North,-999,-999.0,0.0,48,0.00,,,0.00,WeatherTracker,2013-01-30 13:00:00,
2013-01-30 07:05:00,38.5,21.2,28.97,North,-999,-999.0,0.0,48,0.00,,,0.00,WeatherTracker,2013-01-30 13:05:00,
2013-01-30 07:10:00,38.5,21.2,28.97,North,-999,-999.0,0.0,47,0.00,,,0.00,WeatherTracker,2013-01-30 13:10:00,
2013-01-30 07:15:00,38.7,21.2,28.97,North,-999,-999.0,0.0,47,0.00,,,0.00,WeatherTracker,2013-01-30 13:15:00,
2013-01-30 07:20:00,38.5,21.2,28.97,North,-999,-999.0,0.0,48,0.00,,,0.00,WeatherTracker,2013-01-30 13:20:00,
2013-01-30 07:25:00,38.5,21.2,28.97,North,-999,-999.0,0.0,48,0.00,,,0.00,WeatherTracker,2013-01-30 13:25:00,
2013-01-30 07:30:00,38.5,21.2,28.97,North,-999,-999.0,0.0,49,0.00,,,0.00,WeatherTracker,2013-01-30 13:30:00,
2013-01-30 07:35:00,38.5,21.2,28.97,North,-999,-999.0,0.0,49,0.00,,,0.00,WeatherTracker,2013-01-30 13:35:00,
2013-01-30 07:40:00,38.5,21.2,28.97,North,-999,-999.0,0.0,49,0.00,,,0.00,WeatherTracker,2013-01-30 13:40:00,
2013-01-30 07:45:00,38.5,21.2,28.97,North,-999,-999.0,0.0,50,0.00,,,0.00,WeatherTracker,2013-01-30 13:45:00,
2013-01-30 07:50:00,38.5,21.2,29.00,North,-999,-999.0,0.0,50,0.00,,,0.00,WeatherTracker,2013-01-30 13:50:00,
2013-01-30 07:55:00,38.7,21.2,29.00,North,-999,-999.0,0.0,48,0.00,,,0.00,WeatherTracker,2013-01-30 13:55:00,
2013-01-30 08:00:00,38.7,21.2,29.00,North,-999,-999.0,0.0,49,0.00,,,0.00,WeatherTracker,2013-01-30 14:00:00,
2013-01-30 08:05:00,38.7,21.2,29.00,North,-999,-999.0,0.0,49,0.00,,,0.00,WeatherTracker,2013-01-30 14:05:00,
2013-01-30 08:10:00,38.7,19.4,29.00,North,-999,-999.0,0.0,46,0.00,,,0.00,WeatherTracker,2013-01-30 14:10:00,
2013-01-30 08:15:00,38.7,19.4,29.00,North,-999,-999.0,0.0,45,0.00,,,0.00,WeatherTracker,2013-01-30 14:15:00,
2013-01-30 08:20:00,38.7,19.4,29.00,North,-999,-999.0,0.0,46,0.00,,,0.00,WeatherTracker,2013-01-30 14:20:00,
2013-01-30 08:25:00,38.7,19.4,29.00,North,-999,-999.0,0.0,46,0.00,,,0.00,WeatherTracker,2013-01-30 14:25:00,
2013-01-30 08:30:00,38.7,19.4,29.00,North,-999,-999.0,0.0,45,0.00,,,0.00,WeatherTracker,2013-01-30 14:30:00,
2013-01-30 08:35:00,38.8,19.4,29.03,North,-999,-999.0,0.0,45,0.00,,,0.00,WeatherTracker,2013-01-30 14:35:00,
2013-01-30 08:40:00,38.8,19.4,29.03,North,-999,-999.0,0.0,45,0.00,,,0.00,WeatherTracker,2013-01-30 14:40:00,
2013-01-30 08:50:00,38.7,19.4,29.03,North,-999,-999.0,0.0,45,0.00,,,0.00,WeatherTracker,2013-01-30 14:50:00,
2013-01-30 08:55:00,38.5,19.4,29.03,North,-999,-999.0,0.0,45,0.00,,,0.00,WeatherTracker,2013-01-30 14:55:00,
2013-01-30 09:05:00,38.1,19.4,29.03,North,-999,-999.0,0.0,46,0.00,,,0.00,WeatherTracker,2013-01-30 15:05:00,
2013-01-30 09:10:00,37.9,19.4,29.03,North,-999,-999.0,0.0,46,0.00,,,0.00,WeatherTracker,2013-01-30 15:10:00,
2013-01-30 09:20:00,37.9,19.4,29.03,North,-999,-999.0,0.0,46,0.00,,,0.00,WeatherTracker,2013-01-30 15:20:00,
2013-01-30 09:30:00,37.9,19.4,29.03,North,-999,-999.0,0.0,44,0.00,,,0.00,WeatherTracker,2013-01-30 15:30:00,
2013-01-30 09:35:00,37.9,19.4,29.06,North,-999,-999.0,0.0,45,0.00,,,0.00,WeatherTracker,2013-01-30 15:35:00,
2013-01-30 09:40:00,38.1,19.4,29.06,North,-999,-999.0,0.0,45,0.00,,,0.00,WeatherTracker,2013-01-30 15:40:00,
2013-01-30 09:45:00,38.3,19.4,29.06,North,-999,-999.0,0.0,45,0.00,,,0.00,WeatherTracker,2013-01-30 15:45:00,
2013-01-30 09:50:00,38.3,19.4,29.06,North,-999,-999.0,0.0,45,0.00,,,0.00,WeatherTracker,2013-01-30 15:50:00,
2013-01-30 09:55:00,38.3,19.4,29.06,North,-999,-999.0,0.0,45,0.00,,,0.00,WeatherTracker,2013-01-30 15:55:00,
2013-01-30 10:00:00,38.7,19.4,29.06,North,-999,-999.0,0.0,45,0.00,,,0.00,WeatherTracker,2013-01-30 16:00:00,
2013-01-30 10:05:00,38.7,17.6,29.06,North,-999,-999.0,0.0,43,0.00,,,0.00,WeatherTracker,2013-01-30 16:05:00,
2013-01-30 10:10:00,39.7,17.6,29.06,North,-999,-999.0,0.0,41,0.00,,,0.00,WeatherTracker,2013-01-30 16:10:00,
2013-01-30 10:15:00,40.3,19.4,29.06,North,-999,-999.0,0.0,41,0.00,,,0.00,WeatherTracker,2013-01-30 16:15:00,
2013-01-30 10:20:00,40.3,19.4,29.09,North,-999,-999.0,0.0,41,0.00,,,0.00,WeatherTracker,2013-01-30 16:20:00,
2013-01-30 10:25:00,39.9,17.6,29.09,North,-999,-999.0,0.0,41,0.00,,,0.00,WeatherTracker,2013-01-30 16:25:00,
2013-01-30 10:30:00,39.4,17.6,29.09,North,-999,-999.0,0.0,41,0.00,,,0.00,WeatherTracker,2013-01-30 16:30:00,
2013-01-30 10:35:00,39.2,17.6,29.09,North,-999,-999.0,0.0,42,0.00,,,0.00,WeatherTracker,2013-01-30 16:35:00,
2013-01-30 10:40:00,38.8,17.6,29.09,North,-999,-999.0,0.0,42,0.00,,,0.00,WeatherTracker,2013-01-30 16:40:00,
2013-01-30 10:45:00,38.7,17.6,29.09,North,-999,-999.0,0.0,43,0.00,,,0.00,WeatherTracker,2013-01-30 16:45:00,
2013-01-30 10:50:00,39.2,19.4,29.09,North,-999,-999.0,0.0,43,0.00,,,0.00,WeatherTracker,2013-01-30 16:50:00,
2013-01-30 10:55:00,39.9,19.4,29.09,North,-999,-999.0,0.0,43,0.00,,,0.00,WeatherTracker,2013-01-30 16:55:00,
2013-01-30 11:00:00,40.1,19.4,29.09,North,-999,-999.0,0.0,42,0.00,,,0.00,WeatherTracker,2013-01-30 17:00:00,
2013-01-30 11:05:00,40.1,19.4,29.12,North,-999,-999.0,0.0,42,0.00,,,0.00,WeatherTracker,2013-01-30 17:05:00,
2013-01-30 11:10:00,40.6,19.4,29.12,North,-999,-999.0,0.0,41,0.00,,,0.00,WeatherTracker,2013-01-30 17:10:00,
2013-01-30 11:15:00,40.5,19.4,29.12,North,-999,-999.0,0.0,42,0.00,,,0.00,WeatherTracker,2013-01-30 17:15:00,
2013-01-30 11:20:00,40.5,19.4,29.12,North,-999,-999.0,0.0,42,0.00,,,0.00,WeatherTracker,2013-01-30 17:20:00,
2013-01-30 11:25:00,40.5,19.4,29.12,North,-999,-999.0,0.0,42,0.00,,,0.00,WeatherTracker,2013-01-30 17:25:00,
2013-01-30 11:30:00,40.5,19.4,29.12,North,-999,-999.0,0.0,42,0.00,,,0.00,WeatherTracker,2013-01-30 17:30:00,
2013-01-30 11:35:00,40.6,19.4,29.12,North,-999,-999.0,0.0,42,0.00,,,0.00,WeatherTracker,2013-01-30 17:35:00,
2013-01-30 11:40:00,40.6,19.4,29.12,North,-999,-999.0,0.0,42,0.00,,,0.00,WeatherTracker,2013-01-30 17:40:00,
2013-01-30 11:45:00,40.6,19.4,29.12,North,-999,-999.0,0.0,42,0.00,,,0.00,WeatherTracker,2013-01-30 17:45:00,
2013-01-30 11:50:00,40.6,19.4,29.15,North,-999,-999.0,0.0,41,0.00,,,0.00,WeatherTracker,2013-01-30 17:50:00,
2013-01-30 11:55:00,40.6,17.6,29.15,North,-999,-999.0,0.0,40,0.00,,,0.00,WeatherTracker,2013-01-30 17:55:00,
2013-01-30 12:00:00,40.5,17.6,29.15,North,-999,-999.0,0.0,40,0.00,,,0.00,WeatherTracker,2013-01-30 18:00:00,
2013-01-30 12:05:00,40.3,17.6,29.15,North,-999,-999.0,0.0,40,0.00,,,0.00,WeatherTracker,2013-01-30 18:05:00,
2013-01-30 12:10:00,40.1,17.6,29.15,North,-999,-999.0,0.0,40,0.00,,,0.00,WeatherTracker,2013-01-30 18:10:00,
2013-01-30 12:15:00,40.1,17.6,29.15,North,-999,-999.0,0.0,40,0.00,,,0.00,WeatherTracker,2013-01-30 18:15:00,
2013-01-30 12:20:00,40.5,17.6,29.15,North,-999,-999.0,0.0,40,0.00,,,0.00,WeatherTracker,2013-01-30 18:20:00,
2013-01-30 12:25:00,39.9,17.6,29.15,North,-999,-999.0,0.0,40,0.00,,,0.00,WeatherTracker,2013-01-30 18:25:00,
2013-01-30 12:30:00,39.7,17.6,29.15,North,-999,-999.0,0.0,40,0.00,,,0.00,WeatherTracker,2013-01-30 18:30:00,
2013-01-30 12:35:00,39.9,17.6,29.15,North,-999,-999.0,0.0,41,0.00,,,0.00,WeatherTracker,2013-01-30 18:35:00,
2013-01-30 12:40:00,40.1,19.4,29.15,North,-999,-999.0,0.0,41,0.00,,,0.00,WeatherTracker,2013-01-30 18:40:00,
2013-01-30 12:45:00,40.1,17.6,29.15,North,-999,-999.0,0.0,40,0.00,,,0.00,WeatherTracker,2013-01-30 18:45:00,
2013-01-30 12:50:00,39.9,17.6,29.15,North,-999,-999.0,0.0,40,0.00,,,0.00,WeatherTracker,2013-01-30 18:50:00,
2013-01-30 12:55:00,40.5,17.6,29.15,North,-999,-999.0,0.0,40,0.00,,,0.00,WeatherTracker,2013-01-30 18:55:00,
2013-01-30 13:00:00,40.3,17.6,29.15,North,-999,-999.0,0.0,40,0.00,,,0.00,WeatherTracker,2013-01-30 19:00:00,
2013-01-30 13:05:00,40.3,17.6,29.15,North,-999,-999.0,0.0,40,0.00,,,0.00,WeatherTracker,2013-01-30 19:05:00,
2013-01-30 13:15:00,39.9,17.6,29.15,North,-999,-999.0,0.0,39,0.00,,,0.00,WeatherTracker,2013-01-30 19:15:00,
2013-01-30 13:25:00,39.9,17.6,29.12,North,-999,-999.0,0.0,39,0.00,,,0.00,WeatherTracker,2013-01-30 19:25:00,
2013-01-30 13:30:00,40.1,17.6,29.12,North,-999,-999.0,0.0,39,0.00,,,0.00,WeatherTracker,2013-01-30 19:30:00,
2013-01-30 13:35:00,40.5,17.6,29.15,North,-999,-999.0,0.0,39,0.00,,,0.00,WeatherTracker,2013-01-30 19:35:00,
2013-01-30 13:40:00,40.3,17.6,29.15,North,-999,-999.0,0.0,39,0.00,,,0.00,WeatherTracker,2013-01-30 19:40:00,
2013-01-30 13:45:00,40.5,17.6,29.15,North,-999,-999.0,0.0,39,0.00,,,0.00,WeatherTracker,2013-01-30 19:45:00,
2013-01-30 13:50:00,40.5,17.6,29.15,North,-999,-999.0,0.0,39,0.00,,,0.00,WeatherTracker,2013-01-30 19:50:00,
2013-01-30 13:55:00,40.8,17.6,29.15,North,-999,-999.0,0.0,39,0.00,,,0.00,WeatherTracker,2013-01-30 19:55:00,
2013-01-30 14:00:00,41.4,17.6,29.15,North,-999,-999.0,0.0,38,0.00,,,0.00,WeatherTracker,2013-01-30 20:00:00,
2013-01-30 14:05:00,41.4,19.4,29.15,North,-999,-999.0,0.0,39,0.00,,,0.00,WeatherTracker,2013-01-30 20:05:00,
2013-01-30 14:10:00,41.4,17.6,29.15,North,-999,-999.0,0.0,38,0.00,,,0.00,WeatherTracker,2013-01-30 20:10:00,
2013-01-30 14:15:00,42.4,19.4,29.15,North,-999,-999.0,0.0,39,0.00,,,0.00,WeatherTracker,2013-01-30 20:15:00,
2013-01-30 14:20:00,44.1,19.4,29.15,North,-999,-999.0,0.0,37,0.00,,,0.00,WeatherTracker,2013-01-30 20:20:00,
2013-01-30 14:25:00,45.1,21.2,29.15,North,-999,-999.0,0.0,37,0.00,,,0.00,WeatherTracker,2013-01-30 20:25:00,
2013-01-30 14:30:00,44.2,17.6,29.15,North,-999,-999.0,0.0,35,0.00,,,0.00,WeatherTracker,2013-01-30 20:30:00,
2013-01-30 14:35:00,45.0,19.4,29.15,North,-999,-999.0,0.0,36,0.00,,,0.00,WeatherTracker,2013-01-30 20:35:00,
2013-01-30 14:40:00,45.3,19.4,29.15,North,-999,-999.0,0.0,35,0.00,,,0.00,WeatherTracker,2013-01-30 20:40:00,
2013-01-30 14:45:00,45.0,19.4,29.15,North,-999,-999.0,0.0,34,0.00,,,0.00,WeatherTracker,2013-01-30 20:45:00,
2013-01-30 14:50:00,43.7,17.6,29.15,North,-999,-999.0,0.0,33,0.00,,,0.00,WeatherTracker,2013-01-30 20:50:00,
2013-01-30 14:55:00,42.6,15.8,29.15,North,-999,-999.0,0.0,34,0.00,,,0.00,WeatherTracker,2013-01-30 20:55:00,
2013-01-30 15:00:00,43.2,17.6,29.15,North,-999,-999.0,0.0,35,0.00,,,0.00,WeatherTracker,2013-01-30 21:00:00,
2013-01-30 15:05:00,44.8,19.4,29.15,North,-999,-999.0,0.0,35,0.00,,,0.00,WeatherTracker,2013-01-30 21:05:00,
2013-01-30 15:10:00,45.7,19.4,29.15,North,-999,-999.0,0.0,35,0.00,,,0.00,WeatherTracker,2013-01-30 21:10:00,
2013-01-30 15:15:00,45.1,19.4,29.15,North,-999,-999.0,0.0,34,0.00,,,0.00,WeatherTracker,2013-01-30 21:15:00,
2013-01-30 15:20:00,43.5,17.6,29.18,North,-999,-999.0,0.0,34,0.00,,,0.00,WeatherTracker,2013-01-30 21:20:00,
2013-01-30 15:25:00,42.8,15.8,29.18,North,-999,-999.0,0.0,34,0.00,,,0.00,WeatherTracker,2013-01-30 21:25:00,
2013-01-30 15:30:00,42.1,15.8,29.18,North,-999,-999.0,0.0,35,0.00,,,0.00,WeatherTracker,2013-01-30 21:30:00,
2013-01-30 15:35:00,41.0,15.8,29.15,North,-999,-999.0,0.0,34,0.00,,,0.00,WeatherTracker,2013-01-30 21:35:00,
2013-01-30 15:40:00,40.3,14.0,29.15,North,-999,-999.0,0.0,35,0.00,,,0.00,WeatherTracker,2013-01-30 21:40:00,
2013-01-30 15:45:00,40.5,15.8,29.15,North,-999,-999.0,0.0,36,0.00,,,0.00,WeatherTracker,2013-01-30 21:45:00,
2013-01-30 15:50:00,40.6,15.8,29.18,North,-999,-999.0,0.0,37,0.00,,,0.00,WeatherTracker,2013-01-30 21:50:00,
2013-01-30 15:55:00,40.5,15.8,29.18,North,-999,-999.0,0.0,37,0.00,,,0.00,WeatherTracker,2013-01-30 21:55:00,
2013-01-30 16:00:00,39.9,15.8,29.18,North,-999,-999.0,0.0,37,0.00,,,0.00,WeatherTracker,2013-01-30 22:00:00,
2013-01-30 16:05:00,39.7,15.8,29.18,North,-999,-999.0,0.0,38,0.00,,,0.00,WeatherTracker,2013-01-30 22:05:00,
2013-01-30 16:10:00,40.6,15.8,29.18,North,-999,-999.0,0.0,38,0.00,,,0.00,WeatherTracker,2013-01-30 22:10:00,
2013-01-30 16:15:00,40.3,15.8,29.18,North,-999,-999.0,0.0,37,0.00,,,0.00,WeatherTracker,2013-01-30 22:15:00,
2013-01-30 16:20:00,40.3,15.8,29.18,North,-999,-999.0,0.0,37,0.00,,,0.00,WeatherTracker,2013-01-30 22:20:00,
2013-01-30 16:25:00,40.3,15.8,29.18,North,-999,-999.0,0.0,37,0.00,,,0.00,WeatherTracker,2013-01-30 22:25:00,
2013-01-30 16:30:00,40.6,15.8,29.18,North,-999,-999.0,0.0,37,0.00,,,0.00,WeatherTracker,2013-01-30 22:30:00,
2013-01-30 16:35:00,41.0,15.8,29.18,North,-999,-999.0,0.0,36,0.00,,,0.00,WeatherTracker,2013-01-30 22:35:00,
2013-01-30 16:40:00,40.3,15.8,29.18,North,-999,-999.0,0.0,37,0.00,,,0.00,WeatherTracker,2013-01-30 22:40:00,
2013-01-30 16:45:00,39.4,15.8,29.18,North,-999,-999.0,0.0,37,0.00,,,0.00,WeatherTracker,2013-01-30 22:45:00,
2013-01-30 16:50:00,39.2,15.8,29.18,North,-999,-999.0,0.0,37,0.00,,,0.00,WeatherTracker,2013-01-30 22:50:00,
2013-01-30 16:55:00,39.6,15.8,29.18,North,-999,-999.0,0.0,37,0.00,,,0.00,WeatherTracker,2013-01-30 22:55:00,
2013-01-30 17:00:00,40.1,15.8,29.18,North,-999,-999.0,0.0,37,0.00,,,0.00,WeatherTracker,2013-01-30 23:00:00,
2013-01-30 17:05:00,41.4,17.6,29.18,North,-999,-999.0,0.0,38,0.00,,,0.00,WeatherTracker,2013-01-30 23:05:00,
2013-01-30 17:10:00,41.4,17.6,29.18,North,-999,-999.0,0.0,37,0.00,,,0.00,WeatherTracker,2013-01-30 23:10:00,
2013-01-30 17:15:00,40.8,15.8,29.18,North,-999,-999.0,0.0,37,0.00,,,0.00,WeatherTracker,2013-01-30 23:15:00,
2013-01-30 17:20:00,41.4,17.6,29.18,North,-999,-999.0,0.0,37,0.00,,,0.00,WeatherTracker,2013-01-30 23:20:00,
2013-01-30 17:25:00,40.6,15.8,29.18,North,-999,-999.0,0.0,37,0.00,,,0.00,WeatherTracker,2013-01-30 23:25:00,
2013-01-30 17:30:00,38.8,15.8,29.18,North,-999,-999.0,0.0,38,0.00,,,0.00,WeatherTracker,2013-01-30 23:30:00,
2013-01-30 17:40:00,37.9,15.8,29.21,North,-999,-999.0,0.0,39,0.00,,,0.00,WeatherTracker,2013-01-30 23:40:00,
2013-01-30 17:45:00,37.8,15.8,29.21,North,-999,-999.0,0.0,39,0.00,,,0.00,WeatherTracker,2013-01-30 23:45:00,
2013-01-30 17:55:00,37.6,15.8,29.21,North,-999,-999.0,0.0,39,0.00,,,0.00,WeatherTracker,2013-01-30 23:55:00,
2013-01-30 18:00:00,37.4,15.8,29.21,North,-999,-999.0,0.0,39,0.00,,,0.00,WeatherTracker,2013-01-31 00:00:00,
2013-01-30 18:05:00,37.2,15.8,29.21,North,-999,-999.0,0.0,40,0.00,,,0.00,WeatherTracker,2013-01-31 00:05:00,
2013-01-30 18:10:00,37.0,15.8,29.21,North,-999,-999.0,0.0,40,0.00,,,0.00,WeatherTracker,2013-01-31 00:10:00,
2013-01-30 18:15:00,36.9,15.8,29.21,North,-999,-999.0,0.0,40,0.00,,,0.00,WeatherTracker,2013-01-31 00:15:00,
2013-01-30 18:20:00,36.7,15.8,29.21,North,-999,-999.0,0.0,40,0.00,,,0.00,WeatherTracker,2013-01-31 00:20:00,
2013-01-30 18:25:00,36.3,14.0,29.21,North,-999,-999.0,0.0,40,0.00,,,0.00,WeatherTracker,2013-01-31 00:25:00,
2013-01-30 18:30:00,36.0,14.0,29.21,North,-999,-999.0,0.0,40,0.00,,,0.00,WeatherTracker,2013-01-31 00:30:00,
2013-01-30 18:35:00,35.8,14.0,29.21,North,-999,-999.0,0.0,40,0.00,,,0.00,WeatherTracker,2013-01-31 00:35:00,
2013-01-30 18:40:00,35.8,14.0,29.21,North,-999,-999.0,0.0,40,0.00,,,0.00,WeatherTracker,2013-01-31 00:40:00,
2013-01-30 18:45:00,35.8,14.0,29.21,North,-999,-999.0,0.0,40,0.00,,,0.00,WeatherTracker,2013-01-31 00:45:00,
2013-01-30 18:50:00,35.6,14.0,29.23,North,-999,-999.0,0.0,40,0.00,,,0.00,WeatherTracker,2013-01-31 00:50:00,
2013-01-30 18:55:00,35.2,14.0,29.23,North,-999,-999.0,0.0,41,0.00,,,0.00,WeatherTracker,2013-01-31 00:55:00,
2013-01-30 19:00:00,35.2,14.0,29.23,North,-999,-999.0,0.0,41,0.00,,,0.00,WeatherTracker,2013-01-31 01:00:00,
2013-01-30 19:05:00,35.1,14.0,29.21,North,-999,-999.0,0.0,41,0.00,,,0.00,WeatherTracker,2013-01-31 01:05:00,
2013-01-30 19:10:00,35.1,14.0,29.21,North,-999,-999.0,0.0,41,0.00,,,0.00,WeatherTracker,2013-01-31 01:10:00,
2013-01-30 19:15:00,34.9,14.0,29.21,North,-999,-999.0,0.0,41,0.00,,,0.00,WeatherTracker,2013-01-31 01:15:00,
2013-01-30 19:20:00,34.2,14.0,29.23,North,-999,-999.0,0.0,41,0.00,,,0.00,WeatherTracker,2013-01-31 01:20:00,
2013-01-30 19:25:00,33.3,12.2,29.23,North,-999,-999.0,0.0,42,0.00,,,0.00,WeatherTracker,2013-01-31 01:25:00,
2013-01-30 19:30:00,32.7,12.2,29.23,North,-999,-999.0,0.0,42,0.00,,,0.00,WeatherTracker,2013-01-31 01:30:00,
2013-01-30 19:35:00,32.4,12.2,29.23,North,-999,-999.0,0.0,42,0.00,,,0.00,WeatherTracker,2013-01-31 01:35:00,
2013-01-30 19:40:00,31.6,10.4,29.23,North,-999,-999.0,0.0,43,0.00,,,0.00,WeatherTracker,2013-01-31 01:40:00,
2013-01-30 19:45:00,31.1,10.4,29.23,North,-999,-999.0,0.0,43,0.00,,,0.00,WeatherTracker,2013-01-31 01:45:00,
2013-01-30 19:50:00,30.6,8.6,29.23,North,-999,-999.0,0.0,43,0.00,,,0.00,WeatherTracker,2013-01-31 01:50:00,
2013-01-30 19:55:00,30.2,10.4,29.23,North,-999,-999.0,0.0,44,0.00,,,0.00,WeatherTracker,2013-01-31 01:55:00,
2013-01-30 20:00:00,29.8,10.4,29.23,North,-999,-999.0,0.0,45,0.00,,,0.00,WeatherTracker,2013-01-31 02:00:00,
2013-01-30 20:05:00,29.5,10.4,29.23,North,-999,-999.0,0.0,45,0.00,,,0.00,WeatherTracker,2013-01-31 02:05:00,
2013-01-30 20:10:00,29.5,10.4,29.23,North,-999,-999.0,0.0,46,0.00,,,0.00,WeatherTracker,2013-01-31 02:10:00,
2013-01-30 20:15:00,29.1,10.4,29.23,North,-999,-999.0,0.0,47,0.00,,,0.00,WeatherTracker,2013-01-31 02:15:00,
2013-01-30 20:20:00,28.9,10.4,29.23,North,-999,-999.0,0.0,47,0.00,,,0.00,WeatherTracker,2013-01-31 02:20:00,
2013-01-30 20:25:00,28.6,10.4,29.23,North,-999,-999.0,0.0,48,0.00,,,0.00,WeatherTracker,2013-01-31 02:25:00,
2013-01-30 20:30:00,28.4,10.4,29.23,North,-999,-999.0,0.0,49,0.00,,,0.00,WeatherTracker,2013-01-31 02:30:00,
2013-01-30 20:35:00,28.2,10.4,29.23,North,-999,-999.0,0.0,49,0.00,,,0.00,WeatherTracker,2013-01-31 02:35:00,
2013-01-30 20:40:00,28.0,10.4,29.23,North,-999,-999.0,0.0,49,0.00,,,0.00,WeatherTracker,2013-01-31 02:40:00,
2013-01-30 20:45:00,28.0,10.4,29.23,North,-999,-999.0,0.0,50,0.00,,,0.00,WeatherTracker,2013-01-31 02:45:00,
2013-01-30 20:50:00,27.9,10.4,29.23,North,-999,-999.0,0.0,51,0.00,,,0.00,WeatherTracker,2013-01-31 02:50:00,
2013-01-30 20:55:00,27.7,10.4,29.23,North,-999,-999.0,0.0,51,0.00,,,0.00,WeatherTracker,2013-01-31 02:55:00,
2013-01-30 21:00:00,27.9,12.2,29.23,North,-999,-999.0,0.0,52,0.00,,,0.00,WeatherTracker,2013-01-31 03:00:00,
2013-01-30 21:05:00,27.7,12.2,29.26,North,-999,-999.0,0.0,52,0.00,,,0.00,WeatherTracker,2013-01-31 03:05:00,
2013-01-30 21:10:00,27.5,10.4,29.26,North,-999,-999.0,0.0,52,0.00,,,0.00,WeatherTracker,2013-01-31 03:10:00,
2013-01-30 21:15:00,27.3,10.4,29.26,North,-999,-999.0,0.0,52,0.00,,,0.00,WeatherTracker,2013-01-31 03:15:00,
2013-01-30 21:20:00,27.1,12.2,29.23,North,-999,-999.0,0.0,53,0.00,,,0.00,WeatherTracker,2013-01-31 03:20:00,
2013-01-30 21:25:00,27.3,12.2,29.23,North,-999,-999.0,0.0,53,0.00,,,0.00,WeatherTracker,2013-01-31 03:25:00,
2013-01-30 21:30:00,27.5,12.2,29.23,North,-999,-999.0,0.0,53,0.00,,,0.00,WeatherTracker,2013-01-31 03:30:00,
2013-01-30 21:35:00,27.3,12.2,29.23,North,-999,-999.0,0.0,53,0.00,,,0.00,WeatherTracker,2013-01-31 03:35:00,
2013-01-30 21:40:00,27.0,10.4,29.23,North,-999,-999.0,0.0,53,0.00,,,0.00,WeatherTracker,2013-01-31 03:40:00,
2013-01-30 21:45:00,26.6,12.2,29.23,North,-999,-999.0,0.0,54,0.00,,,0.00,WeatherTracker,2013-01-31 03:45:00,
2013-01-30 21:50:00,26.8,12.2,29.23,North,-999,-999.0,0.0,54,0.00,,,0.00,WeatherTracker,2013-01-31 03:50:00,
2013-01-30 21:55:00,26.8,12.2,29.23,North,-999,-999.0,0.0,55,0.00,,,0.00,WeatherTracker,2013-01-31 03:55:00,
2013-01-30 22:05:00,27.0,12.2,29.23,North,-999,-999.0,0.0,55,0.00,,,0.00,WeatherTracker,2013-01-31 04:05:00,
2013-01-30 22:10:00,26.6,12.2,29.23,North,-999,-999.0,0.0,55,0.00,,,0.00,WeatherTracker,2013-01-31 04:10:00,
2013-01-30 22:20:00,26.4,12.2,29.23,North,-999,-999.0,0.0,56,0.00,,,0.00,WeatherTracker,2013-01-31 04:20:00,
2013-01-30 22:25:00,26.8,12.2,29.23,North,-999,-999.0,0.0,56,0.00,,,0.00,WeatherTracker,2013-01-31 04:25:00,
2013-01-30 22:30:00,27.1,12.2,29.23,North,-999,-999.0,0.0,56,0.00,,,0.00,WeatherTracker,2013-01-31 04:30:00,
2013-01-30 22:35:00,27.0,12.2,29.21,North,-999,-999.0,0.0,56,0.00,,,0.00,WeatherTracker,2013-01-31 04:35:00,
2013-01-30 22:40:00,26.8,12.2,29.21,North,-999,-999.0,0.0,57,0.00,,,0.00,WeatherTracker,2013-01-31 04:40:00,
2013-01-30 22:45:00,26.8,12.2,29.21,North,-999,-999.0,0.0,57,0.00,,,0.00,WeatherTracker,2013-01-31 04:45:00,
2013-01-30 22:50:00,26.2,12.2,29.23,North,-999,-999.0,0.0,57,0.00,,,0.00,WeatherTracker,2013-01-31 04:50:00,
2013-01-30 22:55:00,26.6,12.2,29.23,North,-999,-999.0,0.0,58,0.00,,,0.00,WeatherTracker,2013-01-31 04:55:00,
2013-01-30 23:00:00,27.1,14.0,29.23,North,-999,-999.0,0.0,60,0.00,,,0.00,WeatherTracker,2013-01-31 05:00:00,
2013-01-30 23:05:00,27.1,14.0,29.23,North,-999,-999.0,0.0,60,0.00,,,0.00,WeatherTracker,2013-01-31 05:05:00,
2013-01-30 23:15:00,26.8,14.0,29.23,North,-999,-999.0,0.0,60,0.00,,,0.00,WeatherTracker,2013-01-31 05:15:00,
2013-01-30 23:20:00,26.1,12.2,29.23,North,-999,-999.0,0.0,59,0.00,,,0.00,WeatherTracker,2013-01-31 05:20:00,
2013-01-30 23:25:00,26.1,14.0,29.23,North,-999,-999.0,0.0,60,0.00,,,0.00,WeatherTracker,2013-01-31 05:25:00,
2013-01-30 23:30:00,26.1,14.0,29.23,North,-999,-999.0,0.0,61,0.00,,,0.00,WeatherTracker,2013-01-31 05:30:00,
2013-01-30 23:35:00,25.9,14.0,29.23,North,-999,-999.0,0.0,61,0.00,,,0.00,WeatherTracker,2013-01-31 05:35:00,
2013-01-30 23:40:00,26.2,14.0,29.23,North,-999,-999.0,0.0,62,0.00,,,0.00,WeatherTracker,2013-01-31 05:40:00,
2013-01-30 23:45:00,26.2,14.0,29.23,North,-999,-999.0,0.0,62,0.00,,,0.00,WeatherTracker,2013-01-31 05:45:00,
2013-01-30 23:50:00,26.1,14.0,29.23,North,-999,-999.0,0.0,62,0.00,,,0.00,WeatherTracker,2013-01-31 05:50:00,
2013-01-30 23:55:00,25.7,14.0,29.23,North,-999,-999.0,0.0,62,0.00,,,0.00,WeatherTracker,2013-01-31 05:55:00,